Saipan, MP

3:11 AM ChST on December 11, 2016 (GMT +1000)
Saipan International

Weather History for PGSN - December, 2013

Change the Weather History Date:

Tuesday, December 3, 2013

  Actual Average Record
Temperature  
Mean Temperature 80 °F -  
Max Temperature 84 °F 84 °F 88 °F (2012)
Min Temperature 77 °F 76 °F 75 °F (2003)
Cooling Degree Days 16    
Growing Degree Days 30 (Base 50)    
Moisture  
Dew Point 74 °F    
Average Humidity 81    
Maximum Humidity 89    
Minimum Humidity 69    
Precipitation  
Precipitation 0.00 in - - ()
Sea Level Pressure  
Sea Level Pressure 29.89 in    
Wind  
Wind Speed 8 mph (East)    
Max Wind Speed 13 mph    
Max Gust Speed 21 mph    
Visibility 10 miles    
Events      
Averages and records for this station are not official NWS values.
T = Trace of Precipitation, MM = Missing Value Source: NWS Daily Summary

Daily Weather History Graph

Daily Weather History Graph

Search for Another Location

Airport or City:

Trip Planner

Search our weather history database for the weather conditions in past years. The results will help you decide how hot, cold, wet, or windy it might be!

Date:

Astronomy

Dec. 03, 2013 Rise Set
Actual Time 6:28 AM ChST 5:45 PM ChST
Civil Twilight 6:05 AM ChST 6:08 PM ChST
Nautical Twilight 5:38 AM ChST 6:35 PM ChST
Astronomical Twilight 5:12 AM ChST 7:01 PM ChST
Moon 6:20 AM ChST (12/3) 6:04 PM ChST (12/3)
Length of Visible Light 12h 03m
Length of Day
11h 17m
New Moon, 0% of the Moon is Illuminated
Dec 3
New Moon
Dec 10
First Quarter
Dec 17
Full
Dec 25
Last Quarter
Jan 1
New

Hourly Weather History & Observations

Time (ChST) Temp. Heat Index Dew Point Humidity Pressure Visibility Wind Dir Wind Speed Gust Speed Precip Events Conditions
12:54 AM 78.1 °F - 73.0 °F 84% 29.93 in 10.0 mi East 5.8 mph - N/A   Scattered Clouds
1:54 AM 77.0 °F - 73.0 °F 88% 29.91 in 10.0 mi East 8.1 mph - N/A   Partly Cloudy
2:54 AM 77.0 °F - 73.0 °F 88% 29.91 in 10.0 mi East 5.8 mph - N/A   Partly Cloudy
3:34 AM 78.8 °F - 73.4 °F 83% 29.83 in 10.0 mi East 8.1 mph - N/A   Mostly Cloudy
3:54 AM 77.0 °F - 73.0 °F 88% 29.89 in 10.0 mi East 6.9 mph - N/A   Overcast
4:02 AM 77.0 °F - 73.4 °F 89% 29.83 in 10.0 mi East 8.1 mph - N/A   Overcast
4:54 AM 77.0 °F - 73.0 °F 88% 29.89 in 10.0 mi East 9.2 mph - N/A   Mostly Cloudy
5:54 AM 77.0 °F - 72.0 °F 84% 29.90 in 10.0 mi East 10.4 mph - N/A   Partly Cloudy
6:54 AM 78.1 °F - 73.0 °F 84% 29.92 in 10.0 mi East 9.2 mph - N/A   Mostly Cloudy
7:02 AM 78.8 °F - 73.4 °F 83% 29.86 in 10.0 mi East 9.2 mph - N/A   Mostly Cloudy
7:19 AM 78.8 °F - 73.4 °F 83% 29.86 in 10.0 mi East 12.7 mph - N/A   Scattered Clouds
7:54 AM 79.0 °F - 73.0 °F 82% 29.93 in 10.0 mi East 11.5 mph - N/A   Scattered Clouds
8:54 AM 82.0 °F 87.9 °F 73.9 °F 76% 29.94 in 10.0 mi ESE 11.5 mph - N/A   Scattered Clouds
9:54 AM 82.9 °F 90.2 °F 75.0 °F 77% 29.94 in 10.0 mi East 12.7 mph - N/A   Scattered Clouds
10:54 AM 84.9 °F 93.3 °F 75.0 °F 72% 29.92 in 10.0 mi East 12.7 mph - N/A   Scattered Clouds
11:54 AM 84.0 °F 91.2 °F 73.9 °F 72% 29.90 in 10.0 mi East 12.7 mph - N/A   Scattered Clouds
12:54 PM 84.9 °F 93.3 °F 75.0 °F 72% 29.87 in 10.0 mi East 12.7 mph 20.7 mph N/A   Scattered Clouds
1:54 PM 84.9 °F 92.1 °F 73.9 °F 69% 29.85 in 10.0 mi East 12.7 mph 19.6 mph N/A   Scattered Clouds
2:54 PM 84.0 °F 90.2 °F 73.0 °F 69% 29.85 in 10.0 mi ESE 11.5 mph - N/A   Partly Cloudy
3:54 PM 82.9 °F 89.4 °F 73.9 °F 74% 29.85 in 10.0 mi ESE 11.5 mph - N/A   Scattered Clouds
4:54 PM 82.0 °F 87.9 °F 73.9 °F 76% 29.86 in 10.0 mi East 9.2 mph - N/A   Clear
5:54 PM 79.0 °F - 73.9 °F 84% 29.87 in 10.0 mi ESE 9.2 mph - N/A   Partly Cloudy
6:32 PM 78.8 °F - 73.4 °F 83% 29.82 in 10.0 mi East 8.1 mph - N/A   Mostly Cloudy
6:54 PM 79.0 °F - 73.9 °F 84% 29.90 in 10.0 mi East 6.9 mph - N/A   Mostly Cloudy
7:54 PM 79.0 °F - 73.9 °F 84% 29.91 in 10.0 mi ESE 6.9 mph - N/A   Mostly Cloudy
8:49 PM 78.8 °F - 73.4 °F 83% 29.85 in 10.0 mi East 4.6 mph - N/A   Mostly Cloudy
8:54 PM 78.1 °F - 73.9 °F 87% 29.92 in 10.0 mi East 5.8 mph - N/A   Mostly Cloudy
9:54 PM 78.1 °F - 73.0 °F 84% 29.92 in 10.0 mi East 4.6 mph - N/A   Mostly Cloudy
10:54 PM 78.1 °F - 73.9 °F 87% 29.91 in 10.0 mi East 5.8 mph - N/A   Overcast
11:54 PM 77.0 °F - 73.0 °F 88% 29.88 in 10.0 mi East 5.8 mph - N/A   Clear